Time,TemperatureF,DewpointF,PressureIn,WindDirection,WindDirectionDegrees,WindSpeedMPH,WindSpeedGustMPH,Humidity,HourlyPrecipIn,Conditions,Clouds,dailyrainin,SoftwareType,DateUTC
2013-04-25 00:01:00,43.2,27.4,0.00,East,98,13.6,-999.0,53,0.00,,,-99.99,,2013-04-25 08:01:00,
2013-04-25 00:06:00,42.8,27.6,0.00,ENE,70,17.9,-999.0,54,0.00,,,-99.99,,2013-04-25 08:06:00,
2013-04-25 00:11:00,42.2,28.3,0.00,East,81,10.2,-999.0,57,0.00,,,-99.99,,2013-04-25 08:11:00,
2013-04-25 00:16:00,41.9,28.5,0.00,ENE,73,8.6,-999.0,58,0.00,,,-99.99,,2013-04-25 08:16:00,
2013-04-25 00:21:00,41.8,26.8,0.00,East,90,10.8,-999.0,54,0.01,,,-99.99,,2013-04-25 08:21:00,
2013-04-25 00:26:00,41.7,27.8,0.00,ENE,65,14.3,-999.0,57,0.03,,,-99.99,,2013-04-25 08:26:00,
2013-04-25 00:31:00,41.9,28.0,0.00,SE,146,11.4,-999.0,57,0.34,,,-99.99,,2013-04-25 08:31:00,
2013-04-25 00:36:00,41.3,28.1,0.00,ESE,112,10.3,-999.0,59,0.50,,,-99.99,,2013-04-25 08:36:00,
2013-04-25 00:41:00,41.6,28.7,0.00,East,84,14.5,-999.0,59,0.50,,,-99.99,,2013-04-25 08:41:00,
2013-04-25 00:46:00,41.3,28.0,0.00,East,82,20.0,-999.0,58,0.51,,,-99.99,,2013-04-25 08:46:00,
2013-04-25 00:51:00,41.3,27.9,0.00,East,80,13.9,-999.0,58,0.51,,,-99.99,,2013-04-25 08:51:00,
2013-04-25 00:56:00,41.2,27.2,0.00,SE,133,8.3,-999.0,57,0.52,,,-99.99,,2013-04-25 08:56:00,
2013-04-25 01:01:00,40.9,27.3,0.00,ENE,65,24.7,-999.0,58,0.00,,,-99.99,,2013-04-25 09:01:00,
2013-04-25 01:06:00,40.8,26.9,0.00,East,100,9.8,-999.0,57,0.00,,,-99.99,,2013-04-25 09:06:00,
2013-04-25 01:11:00,40.9,27.0,0.00,ENE,59,9.8,-999.0,57,0.00,,,-99.99,,2013-04-25 09:11:00,
2013-04-25 01:17:00,40.5,26.6,0.00,East,83,23.3,-999.0,57,0.00,,,-99.99,,2013-04-25 09:17:00,
2013-04-25 01:22:00,40.2,27.5,0.00,ENE,74,12.4,-999.0,60,0.00,,,-99.99,,2013-04-25 09:22:00,
2013-04-25 01:27:00,40.2,27.5,0.00,ESE,104,10.3,-999.0,60,0.01,,,-99.99,,2013-04-25 09:27:00,
2013-04-25 01:32:00,39.8,27.9,0.00,ENE,68,10.5,-999.0,62,0.01,,,-99.99,,2013-04-25 09:32:00,
2013-04-25 01:37:00,39.8,27.4,0.00,East,80,14.7,-999.0,60,0.24,,,-99.99,,2013-04-25 09:37:00,
2013-04-25 01:42:00,39.8,27.0,0.00,ENE,68,8.4,-999.0,60,0.24,,,-99.99,,2013-04-25 09:42:00,
2013-04-25 01:47:00,40.0,26.5,0.00,East,99,11.7,-999.0,58,0.24,,,-99.99,,2013-04-25 09:47:00,
2013-04-25 01:52:00,39.9,25.7,0.00,ENE,78,18.8,-999.0,56,0.24,,,-99.99,,2013-04-25 09:52:00,
2013-04-25 01:57:00,40.0,27.1,0.00,ESE,102,9.9,-999.0,59,0.24,,,-99.99,,2013-04-25 09:57:00,
2013-04-25 02:02:00,39.6,27.5,0.00,NE,52,9.3,-999.0,61,0.00,,,-99.99,,2013-04-25 10:02:00,
2013-04-25 02:07:00,39.8,26.6,0.00,ESE,102,5.6,-999.0,58,0.00,,,-99.99,,2013-04-25 10:07:00,
2013-04-25 02:12:00,39.8,26.4,0.00,ENE,66,8.9,-999.0,58,0.00,,,-99.99,,2013-04-25 10:12:00,
2013-04-25 02:17:00,39.5,26.5,0.00,SE,143,8.9,-999.0,59,0.50,,,-99.99,,2013-04-25 10:17:00,
2013-04-25 02:22:00,38.6,27.4,0.00,ESE,118,8.8,-999.0,63,0.50,,,-99.99,,2013-04-25 10:22:00,
2013-04-25 02:27:00,38.8,27.4,0.00,SE,139,5.1,-999.0,63,0.50,,,-99.99,,2013-04-25 10:27:00,
2013-04-25 02:32:00,38.6,27.2,0.00,SE,129,6.1,-999.0,63,0.50,,,-99.99,,2013-04-25 10:32:00,
2013-04-25 02:37:00,38.5,27.4,0.00,ENE,70,13.6,-999.0,64,0.50,,,-99.99,,2013-04-25 10:37:00,
2013-04-25 02:42:00,38.2,27.7,0.00,SE,124,7.2,-999.0,65,0.50,,,-99.99,,2013-04-25 10:42:00,
2013-04-25 02:47:00,38.2,28.0,0.00,East,90,7.4,-999.0,66,0.50,,,-99.99,,2013-04-25 10:47:00,
2013-04-25 02:52:00,38.5,27.7,0.00,SE,124,7.7,-999.0,64,0.50,,,-99.99,,2013-04-25 10:52:00,
2013-04-25 02:57:00,38.6,27.0,0.00,SSE,148,12.2,-999.0,63,1.11,,,-99.99,,2013-04-25 10:57:00,
2013-04-25 03:02:00,38.1,27.7,0.00,SE,127,8.4,-999.0,66,0.00,,,-99.99,,2013-04-25 11:02:00,
2013-04-25 03:07:00,38.2,27.4,0.00,East,83,13.5,-999.0,64,0.00,,,-99.99,,2013-04-25 11:07:00,
2013-04-25 03:12:00,38.2,27.2,0.00,SE,140,17.6,-999.0,64,0.20,,,-99.99,,2013-04-25 11:12:00,
2013-04-25 03:17:00,38.3,26.5,0.00,ESE,114,16.8,-999.0,62,0.84,,,-99.99,,2013-04-25 11:17:00,
2013-04-25 03:22:00,38.4,26.5,0.00,ESE,120,20.0,-999.0,62,4.85,,,-99.99,,2013-04-25 11:22:00,
2013-04-25 03:27:00,38.2,26.8,0.00,East,99,15.2,-999.0,63,5.69,,,-99.99,,2013-04-25 11:27:00,
2013-04-25 03:32:00,38.0,25.7,0.00,ESE,120,13.6,-999.0,61,8.01,,,-99.99,,2013-04-25 11:32:00,
2013-04-25 03:37:00,37.8,25.5,0.00,ESE,120,17.0,-999.0,61,8.89,,,-99.99,,2013-04-25 11:37:00,
2013-04-25 03:42:00,37.8,24.2,0.00,South,177,20.7,-999.0,57,10.77,,,-99.99,,2013-04-25 11:42:00,
2013-04-25 03:47:00,37.2,24.4,0.00,ESE,118,25.1,-999.0,59,12.94,,,-99.99,,2013-04-25 11:47:00,
2013-04-25 03:52:00,37.2,23.9,0.00,SE,136,20.5,-999.0,58,16.19,,,-99.99,,2013-04-25 11:52:00,
2013-04-25 03:57:00,37.2,24.2,0.00,SSE,161,17.0,-999.0,59,19.20,,,-99.99,,2013-04-25 11:57:00,
2013-04-25 04:02:00,36.8,23.5,0.00,SSE,148,17.2,-999.0,58,1.89,,,-99.99,,2013-04-25 12:02:00,
2013-04-25 04:07:00,36.5,23.4,0.00,East,101,21.2,-999.0,58,3.38,,,-99.99,,2013-04-25 12:07:00,
2013-04-25 04:12:00,36.5,23.8,0.00,SSE,155,11.3,-999.0,59,4.19,,,-99.99,,2013-04-25 12:12:00,
2013-04-25 04:17:00,36.5,23.0,0.00,South,171,24.4,-999.0,57,5.90,,,-99.99,,2013-04-25 12:17:00,
2013-04-25 04:22:00,36.5,23.0,0.00,SE,139,20.4,-999.0,57,7.98,,,-99.99,,2013-04-25 12:22:00,
2013-04-25 04:27:00,36.3,23.2,0.00,SE,139,13.9,-999.0,58,10.71,,,-99.99,,2013-04-25 12:27:00,
2013-04-25 04:32:00,36.0,23.1,0.00,SE,141,15.4,-999.0,59,13.16,,,-99.99,,2013-04-25 12:32:00,
2013-04-25 04:37:00,36.0,22.9,0.00,SE,142,16.1,-999.0,58,15.70,,,-99.99,,2013-04-25 12:37:00,
2013-04-25 04:42:00,35.9,23.0,0.00,SSE,147,10.4,-999.0,59,17.56,,,-99.99,,2013-04-25 12:42:00,
2013-04-25 04:47:00,35.8,22.1,0.00,SSE,154,17.2,-999.0,57,19.53,,,-99.99,,2013-04-25 12:47:00,
2013-04-25 04:52:00,35.9,22.7,0.00,ESE,116,15.5,-999.0,58,21.69,,,-99.99,,2013-04-25 12:52:00,
2013-04-25 04:57:00,35.8,22.4,0.00,ESE,117,17.4,-999.0,58,24.52,,,-99.99,,2013-04-25 12:57:00,
2013-04-25 05:02:00,35.6,22.7,0.00,SE,128,18.4,-999.0,59,1.60,,,-99.99,,2013-04-25 13:02:00,
2013-04-25 05:07:00,35.3,23.1,0.00,SSE,159,15.7,-999.0,60,3.88,,,-99.99,,2013-04-25 13:07:00,
2013-04-25 05:12:00,35.2,22.9,0.00,SE,124,18.7,-999.0,60,7.89,,,-99.99,,2013-04-25 13:12:00,
2013-04-25 05:17:00,34.9,23.6,0.00,SSE,156,18.3,-999.0,63,12.93,,,-99.99,,2013-04-25 13:17:00,
2013-04-25 05:22:00,34.7,24.1,0.00,SE,131,10.8,-999.0,65,15.96,,,-99.99,,2013-04-25 13:22:00,
2013-04-25 05:27:00,34.4,23.9,0.00,ESE,123,18.1,-999.0,65,18.99,,,-99.99,,2013-04-25 13:27:00,
2013-04-25 05:32:00,34.3,24.5,0.00,SE,140,14.3,-999.0,67,23.03,,,-99.99,,2013-04-25 13:32:00,
2013-04-25 05:37:00,34.2,24.7,0.00,SE,132,17.8,-999.0,67,26.30,,,-99.99,,2013-04-25 13:37:00,
2013-04-25 05:42:00,34.1,25.2,0.00,SE,136,16.0,-999.0,69,30.81,,,-99.99,,2013-04-25 13:42:00,
2013-04-25 05:47:00,34.5,25.5,0.00,SE,140,18.6,-999.0,69,35.79,,,-99.99,,2013-04-25 13:47:00,
2013-04-25 05:52:00,34.8,24.4,0.00,SSE,151,20.2,-999.0,65,39.72,,,-99.99,,2013-04-25 13:52:00,
2013-04-25 05:57:00,34.6,24.9,0.00,SE,143,15.5,-999.0,67,40.69,,,-99.99,,2013-04-25 13:57:00,
2013-04-25 06:02:00,35.0,25.0,0.00,SSE,155,20.7,-999.0,66,0.35,,,-99.99,,2013-04-25 14:02:00,
2013-04-25 06:07:00,34.7,24.2,0.00,ESE,114,18.4,-999.0,65,1.88,,,-99.99,,2013-04-25 14:07:00,
2013-04-25 06:12:00,34.0,23.9,0.00,East,82,15.2,-999.0,66,4.41,,,-99.99,,2013-04-25 14:12:00,
2013-04-25 06:17:00,34.8,22.7,0.00,SE,130,13.9,-999.0,61,5.76,,,-99.99,,2013-04-25 14:17:00,
2013-04-25 06:22:00,35.4,22.7,0.00,SE,127,13.1,-999.0,59,7.84,,,-99.99,,2013-04-25 14:22:00,
2013-04-25 06:27:00,35.3,21.9,0.00,SSE,160,18.5,-999.0,57,9.98,,,-99.99,,2013-04-25 14:27:00,
2013-04-25 06:32:00,35.2,21.3,0.00,SE,145,16.8,-999.0,56,12.81,,,-99.99,,2013-04-25 14:32:00,
2013-04-25 06:37:00,34.7,23.5,0.00,SSE,152,13.1,-999.0,63,14.69,,,-99.99,,2013-04-25 14:37:00,
2013-04-25 06:42:00,34.4,24.4,0.00,SE,127,15.0,-999.0,66,15.62,,,-99.99,,2013-04-25 14:42:00,
2013-04-25 06:47:00,34.2,23.9,0.00,ESE,119,17.2,-999.0,65,16.15,,,-99.99,,2013-04-25 14:47:00,
2013-04-25 06:52:00,33.8,25.0,0.00,ENE,74,11.8,-999.0,69,17.25,,,-99.99,,2013-04-25 14:52:00,
2013-04-25 06:57:00,33.9,25.3,0.00,ESE,117,11.4,-999.0,70,18.51,,,-99.99,,2013-04-25 14:57:00,
2013-04-25 07:02:00,33.6,25.4,0.00,ESE,104,6.1,-999.0,71,0.00,,,-99.99,,2013-04-25 15:02:00,
2013-04-25 07:07:00,33.3,25.6,0.00,SE,137,9.6,-999.0,73,0.00,,,-99.99,,2013-04-25 15:07:00,
2013-04-25 07:12:00,33.8,25.2,0.00,East,100,6.5,-999.0,70,0.02,,,-99.99,,2013-04-25 15:12:00,
2013-04-25 07:17:00,33.7,24.2,0.00,SE,142,7.1,-999.0,68,0.26,,,-99.99,,2013-04-25 15:17:00,
2013-04-25 07:22:00,33.5,24.7,0.00,ENE,71,13.4,-999.0,69,0.32,,,-99.99,,2013-04-25 15:22:00,
2013-04-25 07:27:00,33.5,24.7,0.00,SSE,154,6.3,-999.0,70,0.32,,,-99.99,,2013-04-25 15:27:00,
2013-04-25 07:32:00,33.8,23.4,0.00,SE,138,10.0,-999.0,65,0.32,,,-99.99,,2013-04-25 15:32:00,
2013-04-25 07:37:00,33.8,23.9,0.00,ENE,61,6.1,-999.0,66,0.32,,,-99.99,,2013-04-25 15:37:00,
2013-04-25 07:42:00,33.9,22.8,0.00,East,90,8.2,-999.0,63,0.70,,,-99.99,,2013-04-25 15:42:00,
2013-04-25 07:47:00,33.8,23.2,0.00,ENE,72,10.4,-999.0,64,0.73,,,-99.99,,2013-04-25 15:47:00,
2013-04-25 07:52:00,33.6,23.9,0.00,East,97,8.1,-999.0,67,0.73,,,-99.99,,2013-04-25 15:52:00,
2013-04-25 07:57:00,33.6,23.0,0.00,ENE,74,10.3,-999.0,64,0.73,,,-99.99,,2013-04-25 15:57:00,
2013-04-25 08:02:00,33.8,22.0,0.00,ESE,110,9.8,-999.0,61,0.14,,,-99.99,,2013-04-25 16:02:00,
2013-04-25 08:07:00,33.8,22.8,0.00,SE,146,5.4,-999.0,63,0.14,,,-99.99,,2013-04-25 16:07:00,
2013-04-25 08:12:00,33.7,22.4,0.00,ENE,78,9.8,-999.0,62,0.14,,,-99.99,,2013-04-25 16:12:00,
2013-04-25 08:17:00,34.1,22.8,0.00,SE,130,14.1,-999.0,63,0.95,,,-99.99,,2013-04-25 16:17:00,
2013-04-25 08:22:00,33.6,22.4,0.00,ENE,66,12.5,-999.0,63,1.94,,,-99.99,,2013-04-25 16:22:00,
2013-04-25 08:27:00,33.5,21.2,0.00,SE,145,19.5,-999.0,60,2.68,,,-99.99,,2013-04-25 16:27:00,
2013-04-25 08:33:00,34.3,21.7,0.00,SE,135,12.3,-999.0,59,6.86,,,-99.99,,2013-04-25 16:33:00,
2013-04-25 08:38:00,34.7,18.9,0.00,SSE,151,19.2,-999.0,52,10.11,,,-99.99,,2013-04-25 16:38:00,
2013-04-25 08:43:00,35.0,18.7,0.00,SSE,165,23.5,-999.0,51,13.13,,,-99.99,,2013-04-25 16:43:00,
2013-04-25 08:48:00,34.5,20.0,0.00,SSE,152,20.3,-999.0,55,16.60,,,-99.99,,2013-04-25 16:48:00,
2013-04-25 08:53:00,34.5,21.0,0.00,SE,126,17.4,-999.0,57,20.01,,,-99.99,,2013-04-25 16:53:00,
2013-04-25 08:58:00,34.1,20.8,0.00,SE,128,18.6,-999.0,57,23.27,,,-99.99,,2013-04-25 16:58:00,
2013-04-25 09:03:00,34.1,21.5,0.00,SE,142,13.9,-999.0,59,1.55,,,-99.99,,2013-04-25 17:03:00,
2013-04-25 09:08:00,34.4,21.8,0.00,SE,133,12.9,-999.0,59,3.62,,,-99.99,,2013-04-25 17:08:00,
2013-04-25 09:13:00,34.3,21.8,0.00,SSE,157,13.9,-999.0,60,5.21,,,-99.99,,2013-04-25 17:13:00,
2013-04-25 09:18:00,34.4,22.1,0.00,ESE,117,8.2,-999.0,60,9.05,,,-99.99,,2013-04-25 17:18:00,
2013-04-25 09:23:00,34.7,21.5,0.00,SE,132,18.2,-999.0,58,11.56,,,-99.99,,2013-04-25 17:23:00,
2013-04-25 09:28:00,35.0,21.5,0.00,SE,134,20.6,-999.0,57,15.63,,,-99.99,,2013-04-25 17:28:00,
2013-04-25 09:33:00,34.7,21.8,0.00,SE,143,14.3,-999.0,58,18.16,,,-99.99,,2013-04-25 17:33:00,
2013-04-25 09:40:00,34.6,20.7,0.00,SE,130,18.5,-999.0,56,24.44,,,-99.99,,2013-04-25 17:40:00,
2013-04-25 09:45:00,34.6,21.1,0.00,SSE,148,13.3,-999.0,57,28.70,,,-99.99,,2013-04-25 17:45:00,
2013-04-25 09:50:00,34.7,20.5,0.00,SE,135,19.8,-999.0,55,32.54,,,-99.99,,2013-04-25 17:50:00,
2013-04-25 09:55:00,34.7,21.6,0.00,South,169,17.5,-999.0,58,34.54,,,-99.99,,2013-04-25 17:55:00,
2013-04-25 10:00:00,34.6,20.3,0.00,SE,133,20.9,-999.0,55,0.98,,,-99.99,,2013-04-25 18:00:00,
2013-04-25 10:05:00,34.8,21.3,0.00,SE,141,12.3,-999.0,57,6.07,,,-99.99,,2013-04-25 18:05:00,
2013-04-25 10:10:00,35.3,21.3,0.00,SSE,158,13.2,-999.0,56,6.64,,,-99.99,,2013-04-25 18:10:00,
2013-04-25 10:15:00,35.2,21.4,0.00,SE,133,10.2,-999.0,56,9.13,,,-99.99,,2013-04-25 18:15:00,
2013-04-25 10:20:00,35.1,21.4,0.00,SE,137,15.8,-999.0,57,12.65,,,-99.99,,2013-04-25 18:20:00,
2013-04-25 10:25:00,34.9,21.4,0.00,SE,127,13.5,-999.0,57,17.88,,,-99.99,,2013-04-25 18:25:00,
2013-04-25 10:30:00,34.9,21.0,0.00,SE,124,14.2,-999.0,56,22.86,,,-99.99,,2013-04-25 18:30:00,
2013-04-25 10:35:00,35.1,21.3,0.00,SE,134,12.4,-999.0,56,24.22,,,-99.99,,2013-04-25 18:35:00,
2013-04-25 10:40:00,35.1,20.3,0.00,SSE,147,15.4,-999.0,54,26.22,,,-99.99,,2013-04-25 18:40:00,
2013-04-25 10:45:00,35.3,21.0,0.00,ESE,102,12.7,-999.0,55,28.00,,,-99.99,,2013-04-25 18:45:00,
2013-04-25 10:50:00,35.5,20.7,0.00,SE,131,12.9,-999.0,54,28.20,,,-99.99,,2013-04-25 18:50:00,
2013-04-25 10:55:00,35.2,21.1,0.00,SE,133,12.8,-999.0,56,32.01,,,-99.99,,2013-04-25 18:55:00,
2013-04-25 11:00:00,35.5,20.6,0.00,SE,136,14.7,-999.0,54,0.15,,,-99.99,,2013-04-25 19:00:00,
2013-04-25 11:05:00,35.3,20.3,0.00,SE,128,12.3,-999.0,54,5.64,,,-99.99,,2013-04-25 19:05:00,
2013-04-25 11:10:00,35.5,20.9,0.00,ESE,121,15.3,-999.0,55,7.91,,,-99.99,,2013-04-25 19:10:00,
2013-04-25 11:15:00,35.5,20.8,0.00,South,178,14.9,-999.0,54,10.08,,,-99.99,,2013-04-25 19:15:00,
2013-04-25 11:20:00,35.6,21.5,0.00,South,180,15.7,-999.0,56,10.26,,,-99.99,,2013-04-25 19:20:00,
2013-04-25 11:25:00,35.2,22.6,0.00,SE,139,13.4,-999.0,59,12.11,,,-99.99,,2013-04-25 19:25:00,
2013-04-25 11:30:00,34.9,21.9,0.00,SE,129,19.0,-999.0,58,17.05,,,-99.99,,2013-04-25 19:30:00,
2013-04-25 11:35:00,34.5,21.6,0.00,SE,131,16.5,-999.0,58,20.11,,,-99.99,,2013-04-25 19:35:00,
2013-04-25 11:40:00,35.4,22.4,0.00,SSE,162,11.1,-999.0,58,22.14,,,-99.99,,2013-04-25 19:40:00,
2013-04-25 11:45:00,35.5,21.8,0.00,SE,145,13.5,-999.0,57,24.49,,,-99.99,,2013-04-25 19:45:00,
2013-04-25 11:50:00,35.6,22.1,0.00,SE,124,16.0,-999.0,57,25.99,,,-99.99,,2013-04-25 19:50:00,
2013-04-25 11:55:00,35.2,20.2,0.00,SE,134,17.7,-999.0,54,28.45,,,-99.99,,2013-04-25 19:55:00,
2013-04-25 12:00:00,35.5,20.8,0.00,SE,143,11.3,-999.0,54,0.24,,,-99.99,,2013-04-25 20:00:00,
2013-04-25 12:05:00,35.1,21.1,0.00,SSE,157,13.9,-999.0,56,2.60,,,-99.99,,2013-04-25 20:05:00,
2013-04-25 12:10:00,35.2,20.4,0.00,SSE,149,12.4,-999.0,54,5.14,,,-99.99,,2013-04-25 20:10:00,
2013-04-25 12:15:00,35.5,22.8,0.00,ESE,108,8.6,-999.0,59,8.41,,,-99.99,,2013-04-25 20:15:00,
2013-04-25 12:20:00,35.0,20.5,0.00,SE,139,18.0,-999.0,55,9.78,,,-99.99,,2013-04-25 20:20:00,
2013-04-25 12:26:00,34.8,18.8,0.00,South,175,19.8,-999.0,51,16.57,,,-99.99,,2013-04-25 20:26:00,
2013-04-25 12:31:00,35.0,20.7,0.00,South,170,15.6,-999.0,55,17.76,,,-99.99,,2013-04-25 20:31:00,
2013-04-25 12:36:00,34.8,19.7,0.00,SE,137,21.5,-999.0,53,21.43,,,-99.99,,2013-04-25 20:36:00,
2013-04-25 12:41:00,35.0,19.3,0.00,SSE,151,18.6,-999.0,52,26.49,,,-99.99,,2013-04-25 20:41:00,
2013-04-25 12:46:00,35.1,16.6,0.00,SE,133,14.9,-999.0,46,31.85,,,-99.99,,2013-04-25 20:46:00,
2013-04-25 12:51:00,35.5,17.2,0.00,SE,139,13.2,-999.0,47,34.98,,,-99.99,,2013-04-25 20:51:00,
2013-04-25 12:56:00,35.2,16.8,0.00,ESE,119,17.3,-999.0,46,37.21,,,-99.99,,2013-04-25 20:56:00,
2013-04-25 13:01:00,34.8,17.3,0.00,SE,140,18.1,-999.0,48,1.65,,,-99.99,,2013-04-25 21:01:00,
2013-04-25 13:06:00,35.0,16.4,0.00,SE,131,16.4,-999.0,46,5.62,,,-99.99,,2013-04-25 21:06:00,
2013-04-25 13:11:00,34.9,14.5,0.00,SSE,150,16.6,-999.0,42,10.04,,,-99.99,,2013-04-25 21:11:00,
2013-04-25 13:16:00,34.7,17.9,0.00,South,174,17.8,-999.0,49,13.48,,,-99.99,,2013-04-25 21:16:00,
2013-04-25 13:21:00,34.8,16.2,0.00,SSE,153,25.7,-999.0,46,17.38,,,-99.99,,2013-04-25 21:21:00,
2013-04-25 13:26:00,34.8,18.3,0.00,ESE,123,9.5,-999.0,50,20.88,,,-99.99,,2013-04-25 21:26:00,
2013-04-25 13:31:00,34.8,16.2,0.00,SSE,153,17.2,-999.0,46,24.21,,,-99.99,,2013-04-25 21:31:00,
2013-04-25 13:36:00,35.1,16.7,0.00,SSE,158,25.9,-999.0,46,30.69,,,-99.99,,2013-04-25 21:36:00,
2013-04-25 13:41:00,35.0,16.9,0.00,SSE,163,27.3,-999.0,47,31.81,,,-99.99,,2013-04-25 21:41:00,
2013-04-25 13:46:00,35.1,16.5,0.00,SSE,151,24.0,-999.0,46,37.13,,,-99.99,,2013-04-25 21:46:00,
2013-04-25 13:51:00,35.0,18.9,0.00,SSE,157,14.6,-999.0,51,40.47,,,-99.99,,2013-04-25 21:51:00,
2013-04-25 13:56:00,35.0,18.1,0.00,SE,128,24.4,-999.0,49,42.96,,,-99.99,,2013-04-25 21:56:00,
2013-04-25 14:01:00,35.0,15.6,0.00,SE,136,21.4,-999.0,44,1.15,,,-99.99,,2013-04-25 22:01:00,
2013-04-25 14:06:00,34.9,16.1,0.00,South,175,12.6,-999.0,45,3.77,,,-99.99,,2013-04-25 22:06:00,
2013-04-25 14:11:00,35.1,16.6,0.00,SE,127,19.9,-999.0,46,7.18,,,-99.99,,2013-04-25 22:11:00,
2013-04-25 14:16:00,35.1,17.7,0.00,ESE,121,18.8,-999.0,48,8.90,,,-99.99,,2013-04-25 22:16:00,
2013-04-25 14:21:00,35.0,17.1,0.00,SE,138,15.6,-999.0,47,12.39,,,-99.99,,2013-04-25 22:21:00,
2013-04-25 14:26:00,35.0,18.7,0.00,South,183,21.6,-999.0,51,15.36,,,-99.99,,2013-04-25 22:26:00,
2013-04-25 14:31:00,35.1,19.5,0.00,SE,131,13.4,-999.0,52,16.24,,,-99.99,,2013-04-25 22:31:00,
2013-04-25 14:36:00,35.3,18.1,0.00,SE,127,12.0,-999.0,49,17.12,,,-99.99,,2013-04-25 22:36:00,
2013-04-25 14:41:00,35.2,18.8,0.00,SE,140,13.2,-999.0,51,19.21,,,-99.99,,2013-04-25 22:41:00,
2013-04-25 14:46:00,35.5,19.0,0.00,SSE,156,8.3,-999.0,50,19.79,,,-99.99,,2013-04-25 22:46:00,
2013-04-25 14:51:00,35.4,19.5,0.00,SE,135,10.8,-999.0,52,21.80,,,-99.99,,2013-04-25 22:51:00,
2013-04-25 14:56:00,35.3,18.8,0.00,SE,126,18.3,-999.0,50,25.16,,,-99.99,,2013-04-25 22:56:00,
2013-04-25 15:01:00,35.3,18.7,0.00,ESE,115,14.7,-999.0,50,1.94,,,-99.99,,2013-04-25 23:01:00,
2013-04-25 15:06:00,35.3,19.3,0.00,SE,144,17.4,-999.0,51,4.79,,,-99.99,,2013-04-25 23:06:00,
2013-04-25 15:11:00,35.4,19.8,0.00,South,175,22.8,-999.0,52,10.65,,,-99.99,,2013-04-25 23:11:00,
2013-04-25 15:16:00,35.3,20.0,0.00,SE,134,17.1,-999.0,53,13.92,,,-99.99,,2013-04-25 23:16:00,
2013-04-25 15:21:00,35.2,19.8,0.00,SSE,160,19.2,-999.0,53,18.70,,,-99.99,,2013-04-25 23:21:00,
2013-04-25 15:26:00,35.2,19.7,0.00,SSE,159,19.1,-999.0,53,22.49,,,-99.99,,2013-04-25 23:26:00,
2013-04-25 15:31:00,35.3,20.6,0.00,SE,142,9.9,-999.0,54,25.66,,,-99.99,,2013-04-25 23:31:00,
2013-04-25 15:36:00,35.2,19.7,0.00,SE,139,13.7,-999.0,52,26.45,,,-99.99,,2013-04-25 23:36:00,
2013-04-25 15:41:00,34.9,19.8,0.00,ESE,120,11.8,-999.0,53,29.97,,,-99.99,,2013-04-25 23:41:00,
2013-04-25 15:46:00,34.7,20.4,0.00,ESE,103,17.3,-999.0,55,33.97,,,-99.99,,2013-04-25 23:46:00,
2013-04-25 15:51:00,34.7,19.9,0.00,SSE,154,26.6,-999.0,54,40.32,,,-99.99,,2013-04-25 23:51:00,
2013-04-25 15:56:00,35.0,21.4,0.00,SSE,154,16.9,-999.0,57,43.84,,,-99.99,,2013-04-25 23:56:00,
2013-04-25 16:01:00,34.8,21.4,0.00,SSE,157,15.3,-999.0,57,1.70,,,-99.99,,2013-04-26 00:01:00,
2013-04-25 16:06:00,34.7,19.5,0.00,SE,134,20.1,-999.0,53,4.79,,,-99.99,,2013-04-26 00:06:00,
2013-04-25 16:11:00,34.6,20.0,0.00,ESE,103,12.7,-999.0,54,7.66,,,-99.99,,2013-04-26 00:11:00,
2013-04-25 16:16:00,34.7,18.7,0.00,South,170,17.0,-999.0,51,12.57,,,-99.99,,2013-04-26 00:16:00,
2013-04-25 16:21:00,35.1,19.5,0.00,South,189,17.2,-999.0,52,16.77,,,-99.99,,2013-04-26 00:21:00,
2013-04-25 16:26:00,35.2,18.6,0.00,SSE,159,27.5,-999.0,50,18.06,,,-99.99,,2013-04-26 00:26:00,
2013-04-25 16:31:00,34.6,19.5,0.00,SE,127,13.0,-999.0,53,21.13,,,-99.99,,2013-04-26 00:31:00,
2013-04-25 16:36:00,34.7,17.7,0.00,SE,124,16.3,-999.0,49,24.41,,,-99.99,,2013-04-26 00:36:00,
2013-04-25 16:41:00,34.8,19.2,0.00,SE,124,15.0,-999.0,52,27.32,,,-99.99,,2013-04-26 00:41:00,
2013-04-25 16:46:00,35.2,19.7,0.00,SSE,163,25.8,-999.0,52,30.48,,,-99.99,,2013-04-26 00:46:00,
2013-04-25 16:51:00,34.9,19.8,0.00,SSW,196,16.1,-999.0,53,32.67,,,-99.99,,2013-04-26 00:51:00,
2013-04-25 16:56:00,34.8,18.9,0.00,East,83,9.8,-999.0,51,35.43,,,-99.99,,2013-04-26 00:56:00,
2013-04-25 17:01:00,34.9,17.8,0.00,SE,146,14.0,-999.0,49,0.85,,,-99.99,,2013-04-26 01:01:00,
2013-04-25 17:06:00,34.8,16.4,0.00,ESE,114,13.1,-999.0,46,4.28,,,-99.99,,2013-04-26 01:06:00,
2013-04-25 17:11:00,35.4,16.9,0.00,SE,139,15.4,-999.0,46,7.17,,,-99.99,,2013-04-26 01:11:00,
2013-04-25 17:16:00,35.4,13.5,0.00,SE,139,11.2,-999.0,40,9.88,,,-99.99,,2013-04-26 01:16:00,
2013-04-25 17:21:00,35.6,15.1,0.00,SSE,167,18.9,-999.0,42,11.61,,,-99.99,,2013-04-26 01:21:00,
2013-04-25 17:26:00,35.6,16.7,0.00,SSE,151,26.7,-999.0,45,12.82,,,-99.99,,2013-04-26 01:26:00,
2013-04-25 17:31:00,35.5,15.9,0.00,SSE,147,22.8,-999.0,44,13.64,,,-99.99,,2013-04-26 01:31:00,
2013-04-25 17:36:00,35.4,16.7,0.00,SSE,152,28.8,-999.0,46,16.09,,,-99.99,,2013-04-26 01:36:00,
2013-04-25 17:41:00,35.3,16.8,0.00,South,173,21.4,-999.0,46,19.09,,,-99.99,,2013-04-26 01:41:00,
2013-04-25 17:46:00,35.5,16.7,0.00,SE,144,18.0,-999.0,45,24.31,,,-99.99,,2013-04-26 01:46:00,
2013-04-25 17:51:00,35.5,16.0,0.00,SE,146,16.4,-999.0,44,32.30,,,-99.99,,2013-04-26 01:51:00,
2013-04-25 17:56:00,35.6,16.4,0.00,SSE,160,14.9,-999.0,45,36.60,,,-99.99,,2013-04-26 01:56:00,
2013-04-25 18:01:00,35.9,16.0,0.00,SSE,165,20.3,-999.0,43,1.03,,,-99.99,,2013-04-26 02:01:00,
2013-04-25 18:06:00,35.9,14.2,0.00,ESE,114,7.8,-999.0,40,1.91,,,-99.99,,2013-04-26 02:06:00,
2013-04-25 18:11:00,35.9,17.1,0.00,South,178,9.5,-999.0,46,1.92,,,-99.99,,2013-04-26 02:11:00,
2013-04-25 18:16:00,35.5,15.8,0.00,SSE,148,14.5,-999.0,44,4.23,,,-99.99,,2013-04-26 02:16:00,
2013-04-25 18:21:00,35.5,16.2,0.00,SE,129,10.9,-999.0,45,8.88,,,-99.99,,2013-04-26 02:21:00,
2013-04-25 18:26:00,35.5,15.7,0.00,South,178,19.8,-999.0,43,10.30,,,-99.99,,2013-04-26 02:26:00,
2013-04-25 18:31:00,35.7,16.3,0.00,ESE,113,6.6,-999.0,44,15.34,,,-99.99,,2013-04-26 02:31:00,
2013-04-25 18:36:00,35.4,14.7,0.00,East,100,14.0,-999.0,42,16.29,,,-99.99,,2013-04-26 02:36:00,
2013-04-25 18:41:00,35.5,14.7,0.00,ESE,113,16.3,-999.0,42,21.72,,,-99.99,,2013-04-26 02:41:00,
2013-04-25 18:46:00,35.3,14.9,0.00,SE,137,17.0,-999.0,42,30.28,,,-99.99,,2013-04-26 02:46:00,
2013-04-25 18:51:00,35.3,13.9,0.00,SSE,155,20.7,-999.0,40,31.07,,,-99.99,,2013-04-26 02:51:00,
2013-04-25 18:58:00,35.4,14.7,0.00,SSE,150,20.1,-999.0,42,37.09,,,-99.99,,2013-04-26 02:58:00,
2013-04-25 19:03:00,35.3,15.0,0.00,SSE,148,15.3,-999.0,43,2.76,,,-99.99,,2013-04-26 03:03:00,
2013-04-25 19:08:00,35.5,13.3,0.00,SE,133,15.3,-999.0,39,8.09,,,-99.99,,2013-04-26 03:08:00,
2013-04-25 19:13:00,35.5,15.9,0.00,SE,142,15.1,-999.0,44,11.49,,,-99.99,,2013-04-26 03:13:00,
2013-04-25 19:18:00,35.7,16.5,0.00,SE,141,8.3,-999.0,45,11.56,,,-99.99,,2013-04-26 03:18:00,
2013-04-25 19:23:00,35.6,14.1,0.00,SSE,151,14.8,-999.0,40,14.06,,,-99.99,,2013-04-26 03:23:00,
2013-04-25 19:28:00,35.5,12.7,0.00,SE,144,18.4,-999.0,38,17.07,,,-99.99,,2013-04-26 03:28:00,
2013-04-25 19:33:00,35.5,12.9,0.00,SE,132,14.1,-999.0,38,23.71,,,-99.99,,2013-04-26 03:33:00,
2013-04-25 19:38:00,35.8,12.6,0.00,SSE,150,19.7,-999.0,38,28.28,,,-99.99,,2013-04-26 03:38:00,
2013-04-25 19:43:00,35.6,11.8,0.00,SE,131,19.1,-999.0,36,31.39,,,-99.99,,2013-04-26 03:43:00,
2013-04-25 19:48:00,35.3,13.7,0.00,SSE,151,15.5,-999.0,40,33.29,,,-99.99,,2013-04-26 03:48:00,
2013-04-25 19:53:00,35.6,13.4,0.00,SSE,164,21.2,-999.0,39,37.41,,,-99.99,,2013-04-26 03:53:00,
2013-04-25 19:58:00,35.5,13.6,0.00,SSE,161,21.7,-999.0,40,44.10,,,-99.99,,2013-04-26 03:58:00,
2013-04-25 20:01:00,35.6,14.1,0.00,South,176,24.2,-999.0,40,0.47,,,-99.99,,2013-04-26 04:01:00,
2013-04-25 20:02:00,35.3,13.3,0.00,SE,140,27.5,-999.0,39,0.84,,,-99.99,,2013-04-26 04:02:00,
2013-04-25 20:04:00,35.5,14.6,0.00,SE,131,17.1,-999.0,41,3.19,,,-99.99,,2013-04-26 04:04:00,
2013-04-25 20:05:00,35.3,13.7,0.00,South,176,20.7,-999.0,40,4.27,,,-99.99,,2013-04-26 04:05:00,
2013-04-25 20:10:00,35.4,13.0,0.00,SSE,161,27.0,-999.0,39,9.06,,,-99.99,,2013-04-26 04:10:00,
2013-04-25 20:15:00,35.2,14.3,0.00,SE,129,17.8,-999.0,41,13.10,,,-99.99,,2013-04-26 04:15:00,
2013-04-25 20:20:00,34.9,12.4,0.00,SE,144,15.9,-999.0,38,17.60,,,-99.99,,2013-04-26 04:20:00,
2013-04-25 20:25:00,35.1,13.5,0.00,SE,125,22.2,-999.0,40,21.70,,,-99.99,,2013-04-26 04:25:00,
2013-04-25 20:30:00,34.9,13.1,0.00,SE,145,22.0,-999.0,40,27.41,,,-99.99,,2013-04-26 04:30:00,
2013-04-25 20:36:00,35.1,12.8,0.00,SSE,156,21.4,-999.0,39,31.55,,,-99.99,,2013-04-26 04:36:00,
2013-04-25 20:41:00,35.0,11.9,0.00,SE,142,23.8,-999.0,37,33.74,,,-99.99,,2013-04-26 04:41:00,
2013-04-25 20:46:00,35.3,12.5,0.00,SSE,151,21.8,-999.0,38,35.19,,,-99.99,,2013-04-26 04:46:00,
2013-04-25 20:51:00,35.1,11.4,0.00,SSE,153,23.6,-999.0,37,37.40,,,-99.99,,2013-04-26 04:51:00,
2013-04-25 20:56:00,35.3,10.9,0.00,SE,143,27.2,-999.0,35,39.74,,,-99.99,,2013-04-26 04:56:00,
2013-04-25 21:01:00,34.9,11.7,0.00,SSE,151,19.2,-999.0,37,1.82,,,-99.99,,2013-04-26 05:01:00,
2013-04-25 21:06:00,35.0,12.0,0.00,SE,134,26.3,-999.0,38,5.33,,,-99.99,,2013-04-26 05:06:00,
2013-04-25 21:11:00,34.7,12.4,0.00,SE,144,19.0,-999.0,39,7.04,,,-99.99,,2013-04-26 05:11:00,
2013-04-25 21:16:00,34.7,12.8,0.00,SSE,156,28.4,-999.0,39,9.71,,,-99.99,,2013-04-26 05:16:00,
2013-04-25 21:21:00,34.4,13.6,0.00,SE,140,16.2,-999.0,41,12.66,,,-99.99,,2013-04-26 05:21:00,
2013-04-25 21:26:00,34.4,12.5,0.00,SSE,154,27.0,-999.0,39,17.21,,,-99.99,,2013-04-26 05:26:00,
2013-04-25 21:31:00,34.1,14.4,0.00,SE,139,10.6,-999.0,43,20.33,,,-99.99,,2013-04-26 05:31:00,
2013-04-25 21:36:00,33.9,14.4,0.00,SE,143,13.9,-999.0,44,25.15,,,-99.99,,2013-04-26 05:36:00,
2013-04-25 21:41:00,34.1,14.4,0.00,SE,139,28.6,-999.0,43,28.08,,,-99.99,,2013-04-26 05:41:00,
2013-04-25 21:46:00,34.1,14.0,0.00,SE,135,25.0,-999.0,43,31.75,,,-99.99,,2013-04-26 05:46:00,
2013-04-25 21:51:00,34.4,13.8,0.00,SE,143,14.6,-999.0,42,33.23,,,-99.99,,2013-04-26 05:51:00,
2013-04-25 21:56:00,34.4,12.4,0.00,ESE,123,22.9,-999.0,39,35.04,,,-99.99,,2013-04-26 05:56:00,
2013-04-25 22:01:00,34.4,13.2,0.00,SE,128,16.5,-999.0,41,1.46,,,-99.99,,2013-04-26 06:01:00,
2013-04-25 22:07:00,34.3,13.9,0.00,SSE,156,26.9,-999.0,42,4.60,,,-99.99,,2013-04-26 06:07:00,
2013-04-25 22:12:00,34.1,12.6,0.00,South,174,29.3,-999.0,40,8.35,,,-99.99,,2013-04-26 06:12:00,
2013-04-25 22:17:00,34.2,11.7,0.00,SSE,158,14.1,-999.0,38,10.63,,,-99.99,,2013-04-26 06:17:00,
2013-04-25 22:22:00,34.4,12.8,0.00,SSE,152,30.1,-999.0,40,12.86,,,-99.99,,2013-04-26 06:22:00,
2013-04-25 22:27:00,34.2,11.8,0.00,SE,145,17.0,-999.0,38,15.64,,,-99.99,,2013-04-26 06:27:00,
2013-04-25 22:32:00,33.9,13.8,0.00,SE,124,14.9,-999.0,43,20.37,,,-99.99,,2013-04-26 06:32:00,
2013-04-25 22:37:00,34.0,13.4,0.00,SE,146,17.4,-999.0,42,25.24,,,-99.99,,2013-04-26 06:37:00,
2013-04-25 22:42:00,34.1,12.1,0.00,SSE,164,23.3,-999.0,39,30.84,,,-99.99,,2013-04-26 06:42:00,
2013-04-25 22:47:00,34.0,12.5,0.00,ESE,123,18.2,-999.0,40,34.28,,,-99.99,,2013-04-26 06:47:00,
2013-04-25 22:52:00,33.8,13.2,0.00,SE,146,20.6,-999.0,42,41.03,,,-99.99,,2013-04-26 06:52:00,
2013-04-25 22:57:00,33.7,14.7,0.00,SSE,150,22.5,-999.0,45,43.50,,,-99.99,,2013-04-26 06:57:00,
2013-04-25 23:02:00,33.6,14.1,0.00,SSE,155,15.2,-999.0,44,2.99,,,-99.99,,2013-04-26 07:02:00,
2013-04-25 23:07:00,33.3,14.0,0.00,SE,146,19.5,-999.0,44,8.47,,,-99.99,,2013-04-26 07:07:00,
2013-04-25 23:12:00,33.3,15.0,0.00,SE,136,13.9,-999.0,46,17.60,,,-99.99,,2013-04-26 07:12:00,
2013-04-25 23:17:00,33.3,14.6,0.00,SE,141,14.3,-999.0,45,23.84,,,-99.99,,2013-04-26 07:17:00,
2013-04-25 23:22:00,33.0,14.1,0.00,SSE,155,17.3,-999.0,45,31.86,,,-99.99,,2013-04-26 07:22:00,
2013-04-25 23:27:00,33.1,13.5,0.00,ESE,103,9.4,-999.0,44,38.06,,,-99.99,,2013-04-26 07:27:00,
2013-04-25 23:32:00,33.0,14.3,0.00,East,89,12.4,-999.0,45,44.42,,,-99.99,,2013-04-26 07:32:00,
2013-04-25 23:37:00,33.2,14.5,0.00,ESE,109,14.4,-999.0,45,52.12,,,-99.99,,2013-04-26 07:37:00,
2013-04-25 23:42:00,33.0,13.7,0.00,SE,144,16.4,-999.0,44,57.96,,,-99.99,,2013-04-26 07:42:00,
2013-04-25 23:47:00,33.0,14.4,0.00,SE,146,16.8,-999.0,45,66.75,,,-99.99,,2013-04-26 07:47:00,
2013-04-25 23:52:00,32.8,13.1,0.00,SE,132,13.8,-999.0,43,72.42,,,-99.99,,2013-04-26 07:52:00,
2013-04-25 23:57:00,33.0,13.2,0.00,South,177,17.9,-999.0,43,78.62,,,-99.99,,2013-04-26 07:57:00,